Weather History for Taloyoak, NU

Change the Weather History Date:

Wednesday, November 6, 2013

  Actual Average Record
Temperature  
Mean Temperature 4 °F -  
Max Temperature 18 °F -1 °F 26 °F (2010)
Min Temperature -11 °F -11 °F -25 °F (2003)
Degree Days  
Heating Degree Days 62    
Moisture  
Dew Point 9 °F    
Average Humidity 86    
Maximum Humidity 93    
Minimum Humidity 69    
Precipitation  
Precipitation 0.02 in - - ()
Sea Level Pressure  
Sea Level Pressure 30.21 in    
Wind  
Wind Speed 2 mph ()    
Max Wind Speed 6 mph    
Max Gust Speed -    
Visibility 10.9 miles    
Events Fog , Snow    
Averages and records for this station are not official NWS values.
T = Trace of Precipitation, MM = Missing Value Source: Averaged Metar Reports

Daily Weather History Graph

Daily Weather History Graph

Search for Another Location

Airport:

Trip Planner

Search our weather history database for the weather conditions in past years. The results will help you decide how hot, cold, wet, or windy it might be!

Date:

Astronomy

Nov. 06, 2013 Rise Set
Actual Time 9:06 AM CST 2:48 PM CST
Civil Twilight 7:48 AM CST 4:06 PM CST
Nautical Twilight 6:33 AM CST 5:20 PM CST
Astronomical Twilight 5:24 AM CST 6:29 PM CST
Moon 1:49 PM CST (11/6) 4:28 PM CST (11/6)
Length of Visible Light 8h 17m
Length of Day
5h 41m
Waxing Crescent, 14% of the Moon is Illuminated
Nov 6
Waxing Crescent
Nov 9
First Quarter
Nov 17
Full
Nov 25
Last Quarter
Dec 2
New

Hourly Weather History & Observations

Time (CST) Temp. Windchill Dew Point Humidity Pressure Visibility Wind Dir Wind Speed Gust Speed Precip Events Conditions
12:00 AM 2 °F - -3 °F 69% 30.24 in 15 mi North 3.5 mph - -   Partly Cloudy
12:00 AM 3.2 °F -4.2 °F -2.2 °F 78% 30.24 in 15.0 mi North 3.5 mph - N/A   Mostly Cloudy
1:00 AM 6.8 °F - -0.4 °F 72% 30.24 in 15.0 mi North 2.3 mph - N/A   Overcast
2:00 AM 6.8 °F - 1.4 °F 79% 30.24 in 15.0 mi Calm Calm - N/A Snow Light Snow
3:00 AM 8.6 °F - 3.2 °F 79% 30.24 in 15.0 mi Calm Calm - N/A   Overcast
4:00 AM 10.4 °F - 6.8 °F 85% 30.23 in 15.0 mi Calm Calm - N/A   Overcast
5:00 AM 10.4 °F - 6.8 °F 85% 30.24 in 15.0 mi Calm Calm - N/A   Overcast
6:00 AM 14 °F - 10 °F 78% 30.24 in 1 mi South 4.6 mph - -   Mist
6:00 AM 14.0 °F 6.5 °F 10.4 °F 86% 30.24 in 1.5 mi South 4.6 mph - N/A   Mist
6:22 AM - - - N/A% - 1.0 mi South 3.5 mph - N/A   Mist
7:00 AM 12.2 °F 4.3 °F 8.6 °F 85% 30.24 in 7.0 mi South 4.6 mph - N/A Fog Overcast
7:12 AM - - - N/A% - 15.0 mi South 3.5 mph - N/A   Overcast
8:00 AM 12.2 °F 6.1 °F 8.6 °F 85% 30.24 in 1.0 mi South 3.5 mph - N/A   Mist
8:22 AM - - - N/A% - 0.5 mi SSE 3.5 mph - N/A Fog Fog
9:00 AM 12.2 °F 6.1 °F 8.6 °F 85% 30.24 in 0.5 mi SSE 3.5 mph - N/A Fog Light Freezing Fog
10:00 AM 12.2 °F - 10.4 °F 92% 30.24 in 1.2 mi Calm Calm - N/A   Overcast
11:00 AM 12.2 °F - 10.4 °F 92% 30.23 in 11.0 mi SSE 2.3 mph - N/A Fog Overcast
12:00 PM 13 °F - 11 °F 88% 30.23 in 15 mi South 2.3 mph - -   Overcast
12:00 PM 14.0 °F - 10.4 °F 86% 30.23 in 15.0 mi South 2.3 mph - N/A   Overcast
1:00 PM 15.8 °F - 12.2 °F 86% 30.22 in 15.0 mi South 2.3 mph - N/A   Overcast
2:00 PM 15.8 °F - 14.0 °F 93% 30.21 in 15.0 mi Calm Calm - N/A   Mostly Cloudy
3:00 PM 15.8 °F - 14.0 °F 93% 30.20 in 15.0 mi Calm Calm - N/A Snow Light Snow
4:00 PM 17.6 °F - 15.8 °F 93% 30.19 in 15.0 mi SSE 2.3 mph - N/A   Mostly Cloudy
5:00 PM 17.6 °F 9.3 °F 15.8 °F 93% 30.18 in 15.0 mi South 5.8 mph - N/A   Mostly Cloudy
6:00 PM 15 °F - 13 °F 89% 30.17 in 15 mi SSW 3.5 mph - -   Partly Cloudy
6:00 PM 15.8 °F 10.2 °F 14.0 °F 93% 30.17 in 15.0 mi SSW 3.5 mph - N/A   Overcast
7:00 PM 14.0 °F 8.2 °F 10.4 °F 86% 30.16 in 15.0 mi SSE 3.5 mph - N/A   Overcast
8:00 PM 12.2 °F 6.1 °F 8.6 °F 85% 30.15 in 15.0 mi SSE 3.5 mph - N/A Snow Light Snow
9:00 PM 12.2 °F 6.1 °F 8.6 °F 85% 30.13 in 13.0 mi SSE 3.5 mph - N/A Snow Light Snow
10:00 PM 12.2 °F - 10.4 °F 92% 30.11 in 10.0 mi SE 2.3 mph - N/A Snow Light Snow
11:00 PM 12.2 °F - 10.4 °F 92% 30.09 in 6.0 mi SE 2.3 mph - N/A Snow Light Snow